This is the latest recevied weather packets stored in our database for station/object KC8YVF-1. If no packets are shown the sender has not sent any weather packets the latest 1 day(s).
| Time | Temp. | Humidity | Pressure | Rain* | Wind** | Luminosity | Snow |
|---|---|---|---|---|---|---|---|
| 1777972509 | 10.56° C | 70% | 988 hPa | 0 mm | 0 m/s | - | - |
| 1777972130 | 10.56° C | 70% | 987.8 hPa | 0 mm | 0 m/s | - | - |
| 1777971908 | 10.56° C | 70% | 987.8 hPa | 0 mm | 0 m/s | - | - |
| 1777971608 | 11.11° C | 69% | 987.8 hPa | 0 mm | 0 m/s | - | - |
| 1777971310 | 11.67° C | 69% | 987.8 hPa | 0 mm | 0 m/s | - | - |
| 1777971231 | 11.67° C | 69% | 987.8 hPa | 0 mm | 0 m/s | - | - |
| 1777971009 | 12.22° C | 69% | 987.2 hPa | 0 mm | 0 m/s | - | - |
| 1777970710 | 12.78° C | 69% | 987.1 hPa | 0 mm | 0 m/s | - | - |
| 1777970408 | 13.89° C | 69% | 986.9 hPa | 0 mm | 0 m/s | - | - |
| 1777970331 | 13.89° C | 68% | 987.1 hPa | 0 mm | 0 m/s | - | - |
| 1777970109 | 14.44° C | 67% | 987.1 hPa | 0 mm | 0 m/s | - | - |
| 1777969808 | 15° C | 66% | 987 hPa | 0 mm | 0 m/s | - | - |
| 1777969510 | 15.56° C | 64% | 986.7 hPa | 0 mm | 0 m/s | - | - |
| 1777969431 | 15.56° C | 65% | 986.7 hPa | 0 mm | 0 m/s | - | - |
| 1777968609 | 15.56° C | 66% | 986.6 hPa | 0 mm | 0 m/s | - | - |
| 1777968531 | 15.56° C | 67% | 986.2 hPa | 0 mm | 0 m/s | - | - |
| 1777968310 | 15.56° C | 68% | 986.1 hPa | 0 mm | 0 m/s | - | - |
| 1777968009 | 16.11° C | 68% | 986.1 hPa | 0 mm | 0 m/s | - | - |
| 1777967709 | 16.11° C | 69% | 986.1 hPa | 0 mm | 0 m/s | - | - |
| 1777967630 | 16.11° C | 69% | 986.1 hPa | 0 mm | 0 m/s | - | - |
| 1777967409 | 16.11° C | 70% | 985.9 hPa | 0 mm | 0 m/s | - | - |
| 1777967108 | 16.11° C | 70% | 986.1 hPa | 0 mm | 0 m/s | - | - |
| 1777966810 | 16.11° C | 70% | 985.9 hPa | 0 mm | 0 m/s | - | - |
| 1777966731 | 16.11° C | 71% | 985.7 hPa | 0 mm | 0 m/s | - | - |
| 1777966509 | 16.11° C | 70% | 985.7 hPa | 0 mm | 0 m/s | - | - |
* Rain latest hour (hover to see other rain measurements)
** Current wind speed in m/s (hover to see current wind gust speed)